Location: Allie Creek
(37.5926°N, 89.8526°W)
Time: 13:04:56
(UTC+00:00)

Cosmos 2360 Rocket - Pass Details

Date: 26 September 2023
Orbit: 833 x 845 km, 71.0° (Epoch: 10 December)

Event Time Altitude Azimuth Distance (km) Brightness Sun altitude
Rises 11:00:55 0° 326° (NW) 3,408 5.1 -10.6°
Reaches altitude 10° 11:03:38 10° 316° (NW) 2,470 4.3 -10.1°
Maximum altitude 11:08:28 30° 257° (WSW) 1,482 2.9 -9.1°
Drops below altitude 10° 11:13:17 10° 198° (SSW) 2,457 4.4 -8.2°
Sets 11:16:00 0° 188° (S) 3,386 5.2 -7.7°
